Regional Weather Roundup
Issued by NWS Midland/Odessa, TX

Current Version | Previous Version | Text Only | Print | Product List | Glossary On
Versions: 1 2 3 4 5 6 7 8 9 10 11 12 13 14 15 16 17 18 19 20 21 22 23 24 25 26 27 28 29 30 31 32 33 34 35 36 37 38 39 40 41 42 43 44 45 46 47 48 49 50
000
ASUS44 KMAF 241310
RWRMAF
MIDLAND AREA WEATHER ROUNDUP
NATIONAL WEATHER SERVICE MIDLAND TX
800 AM CDT TUE MAY 24 2016

...IN SOUTHWEST TEXAS AND SOUTHEAST NEW MEXICO...

CITY           SKY/WX    TMP DP  RH WIND       PRES   REMARKS
ALPINE         MOSUNNY   65  47  50 SW9       30.06R
ANDREWS        CLOUDY    71  69  94 S12G17    29.90R
ARTESIA        SUNNY     63  21  20 S5        29.92R
BIG SPRING     MOSUNNY   70  66  88 SE10      29.91R
CARLSBAD       SUNNY     65  55  70 S7        29.91R
DRYDEN         NOT AVBL
FORT STOCKTON  MOSUNNY   70  64  81 S13       29.91R
GUAD PASS      NOT AVBL
HOBBS          PTSUNNY   66  66 100 S7        29.93S FOG
MARFA          CLOUDY    51  48  89 E5        30.06R
MIDLAND AIRPK  MOSUNNY   75  68  79 S9        29.89R
MIDLAND INTL   MOSUNNY   74  67  78 S17       29.88R HAZE
ODESSA         PTSUNNY   74  67  78 S17       29.89S HAZE
PECOS          SUNNY     65  42  43 W8        29.88R
PRESIDIO       FAIR      70  59  67 N5        29.93R
SEMINOLE       MOSUNNY   69  67  93 S8        29.92S
SNYDER           N/A     72  69  91 S9        29.89S
WINK           SUNNY     71  65  81 MISG      29.86R
$$
...OTHER STATIONS IN TEXAS...

CITY           SKY/WX    TMP DP  RH WIND       PRES   REMARKS
ABILENE        CLOUDY    74  70  87 SE13      29.91R
AMARILLO       SUNNY     65  62  90 S17       29.90R
AUSTIN         PTSUNNY   76  73  91 SE7       29.93R
BROWNSVILLE    MOSUNNY   81  78  91 SE12      29.86R FOG
CORPUS CHRISTI PTSUNNY   81  76  84 SE12      29.88R
DALLAS FTW     LGT RAIN  74  70  87 E3        29.95R
DEL RIO        CLOUDY    75  71  87 SE9       29.85R
EL PASO        MOSUNNY   67  23  19 S6        29.97R
HOUSTON INT    PTSUNNY   75  74  96 SE10      29.93R
LUBBOCK        PTSUNNY   70  67  90 SW9       29.90R FOG
SAN ANGELO     MOSUNNY   75  69  81 SE3       29.89R
SAN ANTONIO    CLOUDY    76  72  87 SE9       29.93R
WACO           CLOUDY    75  70  84 S10       29.93R
WICHITA FALLS  NOT AVBL
$$
...OTHER LOCATIONS IN NEW MEXICO...

CITY           SKY/WX    TMP DP  RH WIND       PRES   REMARKS
ALAMAGORDO     SUNNY     63  27  25 SE7       29.98R
ALBUQUERQUE    SUNNY     57  24  28 NE5       30.00R
CANNON AFB     SUNNY     62  52  71 SW2       29.93R
CLOVIS         SUNNY     57  52  82 SW9       29.93R
HOLLOMAN AFB   SUNNY     64  21  19 SE9       29.96R
ROSWELL        SUNNY     58  30  34 SW5       29.90R
RUIDOSO          N/A     57  18  21 SW5       30.11R
SANTA FE       SUNNY     46  22  38 N6        30.04R
TRUTH OR CONSE SUNNY     62  24  23 SW3       29.98R
TUCUMCARI      SUNNY     60  33  36 W7        29.88R
$$



USA.gov is the U.S. government's official web portal to all federal, state and local government web resources and services.